Weather History for KSUN - June, 2014

Change the Weather History Date:

Wednesday, June 18, 2014

  Actual Average Record
Temperature  
Mean Temperature 45 °F -  
Max Temperature 57 °F 74 °F 89 °F (2003)
Min Temperature 33 °F 46 °F 33 °F (2014)
Degree Days  
Heating Degree Days 20    
Moisture  
Dew Point 36 °F    
Average Humidity 84    
Maximum Humidity 100    
Minimum Humidity 55    
Precipitation  
Precipitation 0.00 in - - ()
Sea Level Pressure  
Sea Level Pressure 30.04 in    
Wind  
Wind Speed 7 mph (WNW)    
Max Wind Speed 14 mph    
Max Gust Speed 21 mph    
Visibility 9 miles    
Events Rain , Snow    
Averages and records for this station are not official NWS values.
T = Trace of Precipitation, MM = Missing Value Source: NWS Daily Summary

Daily Weather History Graph

Daily Weather History Graph

Search for Another Location

Airport or City:

Trip Planner

Search our weather history database for the weather conditions in past years. The results will help you decide how hot, cold, wet, or windy it might be!

Date:

Astronomy

Jun. 18, 2014 Rise Set
Actual Time 5:55 AM MDT 9:21 PM MDT
Civil Twilight 5:19 AM MDT 9:56 PM MDT
Nautical Twilight 4:33 AM MDT 10:43 PM MDT
Astronomical Twilight 3:34 AM MDT 11:42 PM MDT
Moon 12:42 AM MDT (6/18) 12:34 PM MDT (6/18)
Length of Visible Light 16h 37m
Length of Day
15h 25m
Waning Gibbous, 62% of the Moon is Illuminated
Jun 18
Waning Gibbous
Jun 19
Last Quarter
Jun 27
New
Jul 5
First Quarter
Jul 12
Full

Hourly Weather History & Observations

Time (MDT) Temp. Windchill Dew Point Humidity Pressure Visibility Wind Dir Wind Speed Gust Speed Precip Events Conditions
12:15 AM 39.2 °F 33.0 °F 33.8 °F 81% 30.01 in 10.0 mi WNW 9.2 mph - N/A   Scattered Clouds
12:35 AM 39.2 °F 35.9 °F 33.8 °F 81% 30.01 in 10.0 mi NW 4.6 mph - N/A   Clear
12:55 AM 41.0 °F 36.4 °F 33.8 °F 76% 30.01 in 10.0 mi North 6.9 mph - N/A   Clear
1:15 AM 35.6 °F 29.9 °F 33.8 °F 93% 30.01 in 10.0 mi WNW 6.9 mph - N/A   Clear
1:35 AM 35.6 °F 28.6 °F 33.8 °F 93% 30.01 in 10.0 mi NW 9.2 mph - N/A   Clear
1:55 AM 35.6 °F 29.2 °F 33.8 °F 93% 30.01 in 10.0 mi NNW 8.1 mph - N/A   Clear
2:15 AM 35.6 °F 29.9 °F 32.0 °F 87% 30.01 in 10.0 mi NW 6.9 mph - N/A   Clear
2:35 AM 35.6 °F 28.6 °F 32.0 °F 87% 30.00 in 10.0 mi NNW 9.2 mph - N/A   Clear
2:55 AM 35.6 °F 30.7 °F 32.0 °F 87% 30.00 in 10.0 mi WNW 5.8 mph - N/A   Clear
3:15 AM 33.8 °F 27.0 °F 32.0 °F 93% 30.01 in 10.0 mi WNW 8.1 mph - N/A   Clear
3:35 AM 35.6 °F 29.2 °F 32.0 °F 87% 30.01 in 10.0 mi NW 8.1 mph - N/A   Clear
3:55 AM 35.6 °F 28.0 °F 32.0 °F 87% 30.00 in 10.0 mi NW 10.4 mph - N/A   Clear
4:15 AM 33.8 °F 27.0 °F 32.0 °F 93% 30.01 in 10.0 mi NNW 8.1 mph - N/A   Clear
4:35 AM 33.8 °F 29.6 °F 32.0 °F 93% 30.02 in 10.0 mi WNW 4.6 mph - N/A   Clear
4:55 AM 33.8 °F 29.6 °F 32.0 °F 93% 30.02 in 10.0 mi NNW 4.6 mph - N/A   Clear
5:15 AM 33.8 °F 28.6 °F 32.0 °F 93% 30.03 in 10.0 mi NNW 5.8 mph - N/A   Scattered Clouds
5:35 AM 33.8 °F 29.6 °F 32.0 °F 93% 30.03 in 10.0 mi NW 4.6 mph - N/A   Mostly Cloudy
5:55 AM 33.8 °F 28.6 °F 32.0 °F 93% 30.03 in 10.0 mi NW 5.8 mph - N/A   Overcast
6:15 AM 33.8 °F 28.6 °F 32.0 °F 93% 30.04 in 10.0 mi NNW 5.8 mph - N/A   Overcast
6:35 AM 33.8 °F 29.6 °F 32.0 °F 93% 30.04 in 10.0 mi NW 4.6 mph - N/A   Overcast
6:47 AM 35.6 °F 31.7 °F 32.0 °F 87% 30.05 in 5.0 mi WNW 4.6 mph - N/A Snow Light Snow
7:25 AM 33.8 °F 29.6 °F 33.8 °F 100% 30.04 in 2.0 mi WNW 4.6 mph - N/A Snow Light Snow
7:47 AM 33.8 °F - 33.8 °F 100% 30.04 in 2.0 mi Calm Calm - N/A Snow Light Snow
8:47 AM 33.8 °F - 33.8 °F 100% 30.05 in 2.0 mi Calm Calm - N/A Snow Light Snow
9:47 AM 35.6 °F - 35.6 °F 100% 30.07 in 3.0 mi Calm Calm - N/A Rain Light Rain
10:47 AM 39.2 °F 37.0 °F 37.4 °F 93% 30.07 in 10.0 mi ESE 3.5 mph - N/A   Mostly Cloudy
11:47 AM 44.6 °F 38.8 °F 39.2 °F 81% 30.06 in 10.0 mi ESE 11.5 mph - N/A   Mostly Cloudy
12:47 PM 48.2 °F - 41.0 °F 76% 30.06 in 10.0 mi SE 6.9 mph - N/A   Overcast
2:47 PM 50.0 °F - 42.8 °F 76% 30.07 in 10.0 mi SE 13.8 mph 17.3 mph N/A   Overcast
3:47 PM 51.8 °F - 41.0 °F 67% 30.06 in 10.0 mi SE 9.2 mph - N/A   Overcast
4:47 PM 55.4 °F - 42.8 °F 63% 30.06 in 10.0 mi ESE 11.5 mph - N/A   Mostly Cloudy
5:47 PM 57.2 °F - 42.8 °F 59% 30.06 in 10.0 mi ESE 10.4 mph - N/A   Mostly Cloudy
6:50 PM 57.2 °F - 42.8 °F 59% 30.05 in 10.0 mi South 9.2 mph - N/A   Mostly Cloudy
7:47 PM 57.2 °F - 41.0 °F 55% 30.07 in 10.0 mi South 11.5 mph 20.7 mph N/A   Scattered Clouds
8:55 PM 53.6 °F - 39.2 °F 58% 30.08 in 10.0 mi South 6.9 mph - N/A   Scattered Clouds
9:50 PM 46.4 °F 41.9 °F 39.2 °F 76% 30.10 in 10.0 mi ESE 9.2 mph - N/A   Partly Cloudy
10:47 PM 44.6 °F 40.2 °F 39.2 °F 81% 30.11 in 10.0 mi South 8.1 mph - N/A   Partly Cloudy
11:15 PM 42.8 °F 40.1 °F 37.4 °F 81% 30.12 in 10.0 mi SSE 4.6 mph - N/A   Clear
11:35 PM 42.8 °F 40.1 °F 39.2 °F 87% 30.13 in 10.0 mi SE 4.6 mph - N/A   Clear
11:55 PM 42.8 °F 41.1 °F 37.4 °F 81% 30.13 in 10.0 mi ESE 3.5 mph - N/A   Clear